Location: Chuignes
(49.9004°N, 2.7515°E)
Time: 23:59:23
(UTC+00:00)

Daily predictions for brighter satellites

Satellite Brightness Start Highest point End
(mag) Time Altitude Azimuth Time Altitude Azimuth Time Altitude Azimuth
Cosmos 2173 Rocket 4.3 16:41:01 10° SSE 16:46:52 43° E 16:52:40 10° NNE
Cosmos 1733 Rocket 3.1 16:44:43 10° S 16:48:57 59° E 16:53:12 10° NNE
Cosmos 2082 Rocket 4.2 16:50:26 10° N 16:51:34 11° NNE 16:52:42 10° NNE
Cosmos 2227 Rocket 3.7 16:47:25 10° WSW 16:52:28 32° NW 16:57:31 10° NNE
USA 281 4.3 16:47:48 10° E 16:52:43 23° NE 16:57:39 10° N
Thor Agena Rocket 3.7 16:48:31 10° SSE 16:53:46 85° WSW 16:59:05 10° NNW
CZ-4C R/B 2.9 16:50:23 10° S 16:53:52 25° ESE 16:58:01 10° ENE
Cosmos 1153 Rocket 4.5 16:48:07 10° S 16:54:15 76° E 17:00:23 10° NNE
Cosmos 1452 Rocket 3.7 16:49:23 10° NNW 16:54:38 80° WSW 16:59:52 10° SSE
Cosmos 1992 Rocket 4.5 16:50:07 10° NNW 16:54:59 38° ENE 16:59:49 10° SE
Cosmos 2242 Rocket 3.8 16:52:34 10° NNW 16:57:04 79° W 17:01:34 10° S
Cosmos 1441 Rocket 4.4 16:55:51 10° NNE 16:58:02 16° ENE 17:00:12 10° ESE
AQUARIUS 4.4 16:56:03 10° SE 17:00:15 45° ENE 17:04:28 10° N
Meteor 1-11 4.3 16:54:31 10° N 17:00:18 64° ENE 17:05:55 10° SSE
Cosmos 1844 4.1 16:55:33 10° S 17:01:04 48° ESE 17:06:35 10° NE
Cosmos 1048 Rocket 4.2 16:56:48 10° SSW 17:01:54 74° WNW 17:07:01 10° NNE
Cosmos 1340 Rocket 3.0 17:07:55 10° S 17:11:37 46° E 17:15:21 10° NNE
Cosmos 44 4.4 17:08:29 10° WSW 17:12:47 38° NW 17:17:20 10° NNE
Cosmos 1674 Rocket 3.5 17:08:55 10° N 17:13:20 73° E 17:17:40 10° SSE
PSLV R/B 4.4 17:13:27 10° ESE 17:16:50 26° ENE 17:20:13 10° N
Cosmos 2219 4.2 17:11:31 10° SW 17:16:53 45° NW 17:22:17 10° NNE
Cosmos 2082 4.4 17:12:02 10° SW 17:17:31 53° NW 17:23:02 10° NNE
Cosmos 2016 Rocket 4.3 17:11:52 10° SSE 17:17:43 45° E 17:23:41 10° NNE
CZ-2D R/B 2.7 17:14:52 10° SSE 17:18:03 89° NE 17:21:14 10° NNW
Cosmos 614 Rocket 3.9 17:18:29 10° SSW 17:23:40 79° ESE 17:28:54 10° NNE
Resurs 1-3 4.4 17:20:04 10° SE 17:23:46 29° ENE 17:27:28 10° N
Helios 1A Rocket 3.7 17:23:44 16° ENE 17:25:12 21° E 17:27:51 10° SSE
IRS-P3 4.1 17:21:04 10° SSE 17:26:23 80° ENE 17:31:45 10° NNW
SJ-6F 4.2 17:26:14 10° SSE 17:30:10 81° ENE 17:34:07 10° NNW
BREEZE M DEB (TANK) 4.4 17:10:44 10° WSW 17:33:19 80° SSE 17:37:25 18° E
MOS 1 Rocket 3.0 17:29:13 10° SSE 17:33:24 63° ENE 17:37:41 10° N
Cosmos 1025 Rocket 3.0 17:29:56 10° N 17:34:18 86° E 17:38:38 10° S
Cosmos 2061 Rocket 4.4 17:30:05 10° SSE 17:35:57 41° E 17:41:47 10° NNE
Cosmos 921 Rocket 3.7 17:32:53 10° SSE 17:36:44 33° E 17:39:40 16° NE
YAOGAN 1 2.9 17:32:52 10° SE 17:36:49 39° ENE 17:40:49 10° N
Cosmos 2263 Rocket 4.0 17:34:33 10° W 17:39:13 27° NW 17:43:54 10° NNE
Cosmos 2100 Rocket 4.1 17:34:22 10° SSW 17:40:36 79° W 17:46:49 10° N
IRAS Rocket 4.2 17:35:55 10° SSE 17:41:26 63° ENE 17:46:56 10° NNW
SPOT 1/Viking Rocket 3.5 17:37:33 10° SSE 17:42:38 63° ENE 17:47:45 10° N
CZ-4 R/B 4.2 17:40:46 10° SSE 17:44:43 72° ENE 17:48:43 10° N
ATLAS CENTAUR R/B 2.2 17:42:02 10° S 17:44:48 22° ESE 17:44:48 22° ESE
SL-19 R/B 4.1 17:40:06 10° SE 17:45:16 56° ENE 17:50:21 10° N
ARIANE 5 R/B 3.4 17:40:58 10° S 17:45:49 52° W 17:50:42 10° NNW
Cosmos 1844 Rocket 2.8 17:40:23 10° SSW 17:45:57 78° WNW 17:51:34 10° NNE
ARIANE 6 FM1 Upper Stage 2.4 17:46:03 10° SW 17:50:02 77° SE 17:52:12 26° NE
Cosmos 1607 4.4 17:44:03 10° WSW 17:50:06 59° NW 17:56:01 11° NE
Cosmos 1833 Rocket 2.9 17:48:05 10° NNW 17:53:34 47° NE 17:57:24 19° ESE
Cosmos 1140 Rocket 4.4 17:52:41 10° SSE 17:56:56 26° E 17:56:57 26° E
Cosmos 1782 Rocket 3.7 17:52:43 10° SSE 17:56:59 49° E 18:01:17 10° NNE
CZ-2D R/B 3.3 17:53:17 10° SSE 17:57:19 86° E 18:01:29 10° NNW
Geosat 4.0 17:53:35 10° SSE 17:58:35 81° WSW 18:03:37 10° NNW
SKYMED 2 3.4 17:57:02 10° NNE 18:01:23 71° ESE 18:05:43 10° S
Cosmos 1867 3.5 17:58:10 10° SW 18:03:37 87° SE 18:07:26 20° NE
NOSS 3-4 (A) 4.0 17:58:32 10° NW 18:05:15 76° SW 18:13:11 10° SSE
NOSS 3-4 (C) 4.0 17:58:37 10° NW 18:05:20 77° SW 18:13:15 10° SSE
COSMO-SKYMED 1 2.4 18:02:06 12° NNE 18:05:48 57° E 18:09:51 10° S
Cosmos 1606 3.9 18:03:49 10° SW 18:06:15 29° WNW 18:08:43 10° N
SL-16 R/B 4.3 18:03:44 10° N 18:09:02 30° WNW 18:14:19 10° WSW
Cosmos 2344 4.4 18:03:23 10° NW 18:10:04 35° NNE 18:14:01 24° ENE
ATLAS 5 CENTAUR R/B 2.2 18:06:48 10° NNW 18:10:37 37° NE 18:11:09 36° NE
NOSS 3-3 (A) 4.5 18:07:00 10° WSW 18:12:18 52° NW 18:17:21 16° NE
Cosmos 1725 Rocket 4.2 18:06:07 10° SSW 18:12:21 75° W 18:18:41 10° N
Cosmos 1908 Rocket 4.0 18:08:29 10° SSW 18:12:50 63° WNW 18:17:16 10° N
Cosmos 540 Rocket 4.4 18:08:48 10° N 18:12:58 28° NE 18:12:58 28° NE
Tiangong 0.0 18:13:00 10° SW 18:15:15 18° S 18:15:32 18° S
Cosmos 1975 Rocket 2.9 18:12:26 10° N 18:16:44 66° ENE 18:20:47 11° SSE
SL-4 R/B 1.5 18:14:05 10° WNW 18:17:34 81° SSW 18:17:58 68° SE
Cosmos 1300 Rocket 3.4 18:13:54 10° S 18:18:18 87° E 18:22:44 10° N
YAOGAN 3 4.4 18:19:45 41° SE 18:21:02 62° ENE 18:25:13 10° N
Cosmos 2233 Rocket 4.0 18:17:49 10° S 18:24:06 86° W 18:30:28 10° N
Spot 4 Rocket 4.4 18:20:31 10° S 18:25:34 65° WSW 18:30:40 10° NNW
Resurs 01 Rocket 1.9 18:28:32 48° NE 18:28:32 48° NE 18:32:16 10° N
ATLAS 2AS CENTAUR R/B 4.0 18:23:28 10° NW 18:29:04 26° N 18:31:46 20° NE
BREEZE-M DEB (TANK) 3.0 18:26:54 10° SW 18:29:26 56° SE 18:29:29 56° SE
Cosmos 1441 Rocket 4.4 18:29:24 10° NNW 18:32:30 36° W 18:35:35 10° SSW
Tsikada Rocket 4.5 18:27:29 10° NNW 18:33:51 65° W 18:40:09 10° S
USA 281 3.1 18:31:57 23° SE 18:36:20 75° ENE 18:42:56 10° NNW
Cosmos 2082 Rocket 3.2 18:32:47 10° NNW 18:36:54 28° NNE 18:36:54 28° NNE
Cosmos 1023 Rocket 4.4 18:34:51 10° S 18:39:57 61° ESE 18:39:57 61° ESE
DNEPR-1 R/B 3.6 18:35:36 10° NW 18:40:00 85° SW 18:40:51 60° SSE
CARTOSAT-1 3.3 18:40:02 84° ENE 18:40:02 84° ENE 18:44:14 10° NNW
CZ-4C R/B 2.3 18:37:07 10° WSW 18:41:31 58° NW 18:43:42 33° NNE
NOAA 6 4.3 18:39:48 10° S 18:44:56 69° WSW 18:50:06 10° NNW
Cosmos 1269 Rocket 3.8 18:42:44 10° SSW 18:47:58 76° ESE 18:48:28 69° ENE
Helios 1A Rocket 4.3 18:57:27 28° NW 18:57:57 29° WNW 19:00:56 10° SW
BREEZE-M DEB (TANK) 4.3 19:06:31 10° SW 19:08:20 37° SSW 19:08:20 37° SSW
ATLAS CENTAUR R/B 3.7 19:16:27 10° WSW 19:17:26 17° WSW 19:17:26 17° WSW
Cosmos 1763 Rocket 4.3 19:25:05 10° NNW 19:28:55 47° NW 19:28:55 47° NW
Cosmos 1833 Rocket 4.1 19:32:16 10° NW 19:37:19 35° WSW 19:39:09 28° SW
Nadezhda 4 Rocket 4.2 19:31:55 10° NNW 19:37:45 70° WNW 19:37:45 70° WNW
SL-12 R/B(2) 4.2 19:37:11 10° SSW 19:44:56 77° SE 19:44:56 77° SE
BREEZE-M DEB (TANK) 4.4 19:20:04 10° WSW 19:49:36 83° SSE 19:50:26 76° ESE
ATLAS 5 CENTAUR R/B 3.9 19:49:02 10° NW 19:50:42 23° WNW 19:50:42 23° WNW
Resurs 01 Rocket 4.3 20:05:56 18° WNW 20:05:56 18° WNW 20:07:53 10° NW
ATLAS 2AS CENTAUR R/B 4.1 20:15:24 10° NW 20:19:10 29° NNW 20:19:10 29° NNW
Cosmos 2082 Rocket 4.1 20:16:36 10° NW 20:18:44 24° NW 20:18:44 24° NW
Cosmos 2344 4.0 20:17:54 10° NW 20:24:02 62° NNW 20:24:02 62° NNW
CZ-4C R/B 4.4 20:26:48 10° WNW 20:28:40 19° NW 20:28:40 19° NW
